Imperial, CA

5:31 PM PST on February 05, 2016 (GMT -0800)
Imperial County

Weather History for KIPL - April, 2014

Change the Weather History Date:

Thursday, April 24, 2014

  Actual Average Record
Temperature  
Mean Temperature 75 °F -  
Max Temperature 91 °F 87 °F 100 °F (1949)
Min Temperature 59 °F 57 °F 48 °F (1960)
Cooling Degree Days 10    
Growing Degree Days 25 (Base 50)    
Moisture  
Dew Point 39 °F    
Average Humidity 31    
Maximum Humidity 58    
Minimum Humidity 11    
Precipitation  
Precipitation 0.00 in - - ()
Sea Level Pressure  
Sea Level Pressure 29.83 in    
Wind  
Wind Speed 6 mph (WSW)    
Max Wind Speed 14 mph    
Max Gust Speed -    
Visibility 10 miles    
Events      
Averages and records for this station are not official NWS values.
T = Trace of Precipitation, MM = Missing Value Source: NWS Daily Summary

Daily Weather History Graph

Daily Weather History Graph

Search for Another Location

Airport or City:

Trip Planner

Search our weather history database for the weather conditions in past years. The results will help you decide how hot, cold, wet, or windy it might be!

Date:

Astronomy

Apr. 24, 2014 Rise Set
Actual Time 6:02 AM PDT 7:19 PM PDT
Civil Twilight 5:36 AM PDT 7:44 PM PDT
Nautical Twilight 5:05 AM PDT 8:15 PM PDT
Astronomical Twilight 4:33 AM PDT 8:47 PM PDT
Moon 2:59 AM PDT (4/24) 2:54 PM PDT (4/24)
Length of Visible Light 14h 08m
Length of Day
13h 16m
Waning Crescent, 23% of the Moon is Illuminated
Apr 24
Waning Crescent
Apr 28
New
May 6
First Quarter
May 14
Full
May 21
Last Quarter

Hourly Weather History & Observations

Time (PDT) Temp. Dew Point Humidity Pressure Visibility Wind Dir Wind Speed Gust Speed Precip Events Conditions
12:53 AM 61.0 °F 42.1 °F 50% 29.85 in 10.0 mi West 6.9 mph - N/A   Clear
1:53 AM 62.1 °F 42.1 °F 48% 29.84 in 10.0 mi West 8.1 mph - N/A   Clear
2:53 AM 62.1 °F 41.0 °F 46% 29.83 in 10.0 mi WSW 4.6 mph - N/A   Clear
3:53 AM 60.1 °F 41.0 °F 49% 29.83 in 10.0 mi WSW 3.5 mph - N/A   Clear
4:53 AM 59.0 °F 41.0 °F 51% 29.84 in 10.0 mi WSW 4.6 mph - N/A   Clear
5:53 AM 60.1 °F 42.1 °F 51% 29.86 in 10.0 mi WNW 5.8 mph - N/A   Clear
6:53 AM 61.0 °F 46.0 °F 58% 29.87 in 10.0 mi NW 4.6 mph - N/A   Clear
7:53 AM 66.9 °F 48.9 °F 52% 29.90 in 10.0 mi WNW 4.6 mph - N/A   Clear
8:53 AM 73.0 °F 48.9 °F 42% 29.91 in 10.0 mi WNW 5.8 mph - N/A   Clear
9:53 AM 78.1 °F 48.9 °F 36% 29.91 in 10.0 mi North 4.6 mph - N/A   Clear
10:53 AM 82.0 °F 45.0 °F 27% 29.90 in 10.0 mi Variable 3.5 mph - N/A   Clear
11:53 AM 86.0 °F 36.0 °F 17% 29.89 in 10.0 mi NE 6.9 mph - N/A   Clear
12:53 PM 88.0 °F 30.9 °F 13% 29.87 in 10.0 mi North - - N/A   Clear
1:53 PM 90.0 °F 28.0 °F 11% 29.84 in 10.0 mi Calm Calm - N/A   Clear
2:53 PM 90.0 °F 30.0 °F 12% 29.82 in 10.0 mi SE 10.4 mph - N/A   Clear
3:53 PM 91.0 °F 30.0 °F 11% 29.79 in 10.0 mi East 8.1 mph - N/A   Clear
4:53 PM 89.1 °F 30.0 °F 12% 29.77 in 10.0 mi SE 6.9 mph - N/A   Clear
5:53 PM 89.1 °F 33.1 °F 14% 29.76 in 10.0 mi ESE 9.2 mph - N/A   Clear
6:53 PM 87.1 °F 37.0 °F 17% 29.76 in 10.0 mi SE 9.2 mph - N/A   Clear
7:53 PM 84.0 °F 35.1 °F 17% 29.76 in 10.0 mi SSE 10.4 mph - N/A   Clear
8:53 PM 82.0 °F 30.9 °F 16% 29.78 in 10.0 mi SSE 13.8 mph - N/A   Clear
9:53 PM 75.0 °F 39.0 °F 27% 29.79 in 10.0 mi West 3.5 mph - N/A   Clear
10:53 PM 71.1 °F 41.0 °F 34% 29.79 in 10.0 mi WSW 6.9 mph - N/A   Clear
11:53 PM 69.1 °F 42.1 °F 38% 29.79 in 10.0 mi West 3.5 mph - N/A   Clear